Time,TemperatureF,DewpointF,PressureIn,WindDirection,WindDirectionDegrees,WindSpeedMPH,WindSpeedGustMPH,Humidity,HourlyPrecipIn,Conditions,Clouds,dailyrainin,SoftwareType,DateUTC
2013-03-06 00:15:00,10.7,7.0,29.59,North,-999,0.0,0.0,85,0.00,,,0.00,weatherlink.com 1.10,2013-03-06 07:15:00,
2013-03-06 00:30:00,9.9,6.0,29.59,North,-999,0.0,0.0,85,0.00,,,0.00,weatherlink.com 1.10,2013-03-06 07:30:00,
2013-03-06 00:45:00,9.4,6.0,29.59,North,-999,0.0,0.0,85,0.00,,,0.00,weatherlink.com 1.10,2013-03-06 07:45:00,
2013-03-06 01:00:00,8.8,5.0,29.59,North,-999,0.0,0.0,84,0.00,,,0.00,weatherlink.com 1.10,2013-03-06 08:00:00,
2013-03-06 01:15:00,7.7,4.0,29.59,North,-999,0.0,0.0,84,0.00,,,0.00,weatherlink.com 1.10,2013-03-06 08:15:00,
2013-03-06 01:30:00,7.3,4.0,29.59,North,-999,0.0,0.0,85,0.00,,,0.00,weatherlink.com 1.10,2013-03-06 08:30:00,
2013-03-06 01:45:00,6.8,3.0,29.59,North,-999,0.0,0.0,84,0.00,,,0.00,weatherlink.com 1.10,2013-03-06 08:45:00,
2013-03-06 02:00:00,6.5,3.0,29.59,North,-999,0.0,0.0,84,0.00,,,0.00,weatherlink.com 1.10,2013-03-06 09:00:00,
2013-03-06 02:15:00,6.3,3.0,29.59,North,-999,0.0,0.0,84,0.00,,,0.00,weatherlink.com 1.10,2013-03-06 09:15:00,
2013-03-06 02:30:00,6.0,3.0,29.59,North,-999,0.0,0.0,85,0.00,,,0.00,weatherlink.com 1.10,2013-03-06 09:30:00,
2013-03-06 02:45:00,6.0,3.0,29.59,North,-999,0.0,0.0,85,0.00,,,0.00,weatherlink.com 1.10,2013-03-06 09:45:00,
2013-03-06 03:01:00,6.2,3.0,29.57,North,-999,0.0,0.0,86,0.00,,,0.00,weatherlink.com 1.10,2013-03-06 10:01:00,
2013-03-06 03:16:00,6.4,3.0,29.57,North,-999,0.0,0.0,85,0.00,,,0.00,weatherlink.com 1.10,2013-03-06 10:16:00,
2013-03-06 03:31:00,6.5,3.0,29.55,North,-999,0.0,0.0,86,0.00,,,0.00,weatherlink.com 1.10,2013-03-06 10:31:00,
2013-03-06 03:46:00,6.7,3.0,29.55,North,-999,0.0,0.0,86,0.00,,,0.00,weatherlink.com 1.10,2013-03-06 10:46:00,
2013-03-06 04:01:00,6.7,3.0,29.55,North,-999,0.0,0.0,85,0.00,,,0.00,weatherlink.com 1.10,2013-03-06 11:01:00,
2013-03-06 04:16:00,6.7,3.0,29.54,North,-999,0.0,0.0,86,0.00,,,0.00,weatherlink.com 1.10,2013-03-06 11:16:00,
2013-03-06 04:31:00,6.7,3.0,29.54,North,-999,0.0,0.0,86,0.00,,,0.00,weatherlink.com 1.10,2013-03-06 11:31:00,
2013-03-06 04:46:00,6.4,3.0,29.53,North,-999,0.0,0.0,86,0.00,,,0.00,weatherlink.com 1.10,2013-03-06 11:46:00,
2013-03-06 05:01:00,6.2,3.0,29.53,North,-999,0.0,0.0,86,0.00,,,0.00,weatherlink.com 1.10,2013-03-06 12:01:00,
2013-03-06 05:16:00,6.2,3.0,29.53,North,-999,0.0,0.0,86,0.00,,,0.00,weatherlink.com 1.10,2013-03-06 12:16:00,
2013-03-06 05:32:00,5.8,2.0,29.52,North,-999,0.0,0.0,85,0.00,,,0.00,weatherlink.com 1.10,2013-03-06 12:32:00,
2013-03-06 05:47:00,6.0,3.0,29.51,North,-999,0.0,0.0,86,0.00,,,0.00,weatherlink.com 1.10,2013-03-06 12:47:00,
2013-03-06 06:02:00,5.9,3.0,29.52,North,-999,0.0,0.0,86,0.00,,,0.00,weatherlink.com 1.10,2013-03-06 13:02:00,
2013-03-06 06:16:00,5.8,3.0,29.52,North,-999,0.0,0.0,86,0.00,,,0.00,weatherlink.com 1.10,2013-03-06 13:16:00,
2013-03-06 06:31:00,5.8,3.0,29.52,North,-999,0.0,0.0,86,0.00,,,0.00,weatherlink.com 1.10,2013-03-06 13:31:00,
2013-03-06 06:46:00,5.7,2.0,29.51,North,-999,0.0,0.0,85,0.00,,,0.00,weatherlink.com 1.10,2013-03-06 13:46:00,
2013-03-06 07:01:00,5.3,2.0,29.51,North,-999,0.0,0.0,85,0.00,,,0.00,weatherlink.com 1.10,2013-03-06 14:01:00,
2013-03-06 07:16:00,5.3,2.0,29.51,North,-999,0.0,0.0,86,0.00,,,0.00,weatherlink.com 1.10,2013-03-06 14:16:00,
2013-03-06 07:31:00,5.6,3.0,29.51,North,-999,0.0,0.0,87,0.00,,,0.00,weatherlink.com 1.10,2013-03-06 14:31:00,
2013-03-06 07:46:00,6.0,3.0,29.50,North,-999,0.0,0.0,86,0.00,,,0.00,weatherlink.com 1.10,2013-03-06 14:46:00,
2013-03-06 08:02:00,6.8,4.0,29.50,North,-999,0.0,0.0,88,0.00,,,0.00,weatherlink.com 1.10,2013-03-06 15:02:00,
2013-03-06 08:17:00,7.7,5.0,29.49,North,-999,0.0,0.0,87,0.00,,,0.00,weatherlink.com 1.10,2013-03-06 15:17:00,
2013-03-06 08:32:00,8.4,5.0,29.48,North,-999,0.0,0.0,87,0.00,,,0.00,weatherlink.com 1.10,2013-03-06 15:32:00,
2013-03-06 08:47:00,9.6,7.0,29.48,North,-999,0.0,0.0,87,0.00,,,0.00,weatherlink.com 1.10,2013-03-06 15:47:00,
2013-03-06 09:02:00,10.6,8.0,29.47,North,-999,0.0,0.0,87,0.00,,,0.00,weatherlink.com 1.10,2013-03-06 16:02:00,
2013-03-06 09:17:00,11.8,8.0,29.46,North,-999,0.0,0.0,86,0.00,,,0.00,weatherlink.com 1.10,2013-03-06 16:17:00,
2013-03-06 09:33:00,13.5,10.0,29.46,North,-999,0.0,0.0,86,0.00,,,0.00,weatherlink.com 1.10,2013-03-06 16:33:00,
2013-03-06 09:48:00,15.6,11.0,29.45,North,-999,0.0,0.0,83,0.00,,,0.00,weatherlink.com 1.10,2013-03-06 16:48:00,
2013-03-06 10:03:00,17.1,12.0,29.45,North,-999,0.0,0.0,80,0.00,,,0.00,weatherlink.com 1.10,2013-03-06 17:03:00,
2013-03-06 10:18:00,18.2,13.0,29.44,North,-999,0.0,0.0,81,0.00,,,0.00,weatherlink.com 1.10,2013-03-06 17:18:00,
2013-03-06 10:33:00,19.1,14.0,29.44,North,-999,0.0,0.0,79,0.00,,,0.00,weatherlink.com 1.10,2013-03-06 17:33:00,
2013-03-06 10:48:00,18.8,13.0,29.44,North,-999,0.0,0.0,79,0.00,,,0.00,weatherlink.com 1.10,2013-03-06 17:48:00,
2013-03-06 11:03:00,18.9,14.0,29.43,North,-999,0.0,0.0,80,0.00,,,0.00,weatherlink.com 1.10,2013-03-06 18:03:00,
2013-03-06 11:19:00,19.0,14.0,29.42,North,-999,0.0,0.0,81,0.00,,,0.00,weatherlink.com 1.10,2013-03-06 18:19:00,
2013-03-06 11:34:00,19.5,15.0,29.41,North,-999,0.0,0.0,81,0.00,,,0.00,weatherlink.com 1.10,2013-03-06 18:34:00,
2013-03-06 11:49:00,18.9,15.0,29.42,North,-999,0.0,0.0,83,0.00,,,0.00,weatherlink.com 1.10,2013-03-06 18:49:00,
2013-03-06 12:04:00,20.2,15.0,29.41,North,-999,0.0,0.0,81,0.00,,,0.00,weatherlink.com 1.10,2013-03-06 19:04:00,
2013-03-06 12:18:00,20.7,16.0,29.41,North,-999,0.0,0.0,81,0.00,,,0.00,weatherlink.com 1.10,2013-03-06 19:18:00,
2013-03-06 12:33:00,21.0,16.0,29.41,North,-999,0.0,0.0,80,0.00,,,0.00,weatherlink.com 1.10,2013-03-06 19:33:00,
2013-03-06 12:48:00,21.6,16.0,29.41,North,-999,0.0,0.0,80,0.00,,,0.00,weatherlink.com 1.10,2013-03-06 19:48:00,
2013-03-06 13:03:00,22.1,17.0,29.41,North,-999,0.0,0.0,81,0.00,,,0.00,weatherlink.com 1.10,2013-03-06 20:03:00,
2013-03-06 13:18:00,21.9,18.0,29.40,North,-999,0.0,0.0,83,0.00,,,0.00,weatherlink.com 1.10,2013-03-06 20:18:00,
2013-03-06 13:33:00,21.7,18.0,29.40,North,-999,0.0,0.0,85,0.00,,,0.00,weatherlink.com 1.10,2013-03-06 20:33:00,
2013-03-06 13:49:00,22.4,19.0,29.39,North,-999,0.0,0.0,85,0.00,,,0.00,weatherlink.com 1.10,2013-03-06 20:49:00,
2013-03-06 14:04:00,22.7,19.0,29.39,North,-999,0.0,0.0,86,0.00,,,0.00,weatherlink.com 1.10,2013-03-06 21:04:00,
2013-03-06 14:19:00,23.2,20.0,29.38,North,-999,0.0,0.0,86,0.00,,,0.00,weatherlink.com 1.10,2013-03-06 21:19:00,
2013-03-06 14:34:00,23.5,20.0,29.37,North,-999,0.0,0.0,86,0.00,,,0.00,weatherlink.com 1.10,2013-03-06 21:34:00,
2013-03-06 14:49:00,24.2,21.0,29.37,North,-999,0.0,0.0,86,0.00,,,0.00,weatherlink.com 1.10,2013-03-06 21:49:00,
2013-03-06 15:04:00,24.6,21.0,29.36,North,-999,0.0,0.0,87,0.00,,,0.00,weatherlink.com 1.10,2013-03-06 22:04:00,
2013-03-06 15:19:00,24.9,22.0,29.35,North,-999,0.0,0.0,87,0.00,,,0.00,weatherlink.com 1.10,2013-03-06 22:19:00,
2013-03-06 15:34:00,25.5,22.0,29.35,North,-999,0.0,0.0,86,0.00,,,0.00,weatherlink.com 1.10,2013-03-06 22:34:00,
2013-03-06 15:49:00,25.5,22.0,29.35,North,-999,0.0,0.0,86,0.00,,,0.00,weatherlink.com 1.10,2013-03-06 22:49:00,
2013-03-06 16:05:00,25.6,22.0,29.35,North,-999,0.0,0.0,86,0.00,,,0.00,weatherlink.com 1.10,2013-03-06 23:05:00,
2013-03-06 16:20:00,25.5,22.0,29.35,North,-999,0.0,0.0,87,0.00,,,0.00,weatherlink.com 1.10,2013-03-06 23:20:00,
2013-03-06 16:35:00,25.5,22.0,29.34,North,-999,0.0,0.0,87,0.00,,,0.00,weatherlink.com 1.10,2013-03-06 23:35:00,
2013-03-06 16:50:00,25.1,22.0,29.35,North,-999,0.0,0.0,88,0.00,,,0.00,weatherlink.com 1.10,2013-03-06 23:50:00,
2013-03-06 17:05:00,24.7,22.0,29.35,North,-999,0.0,0.0,89,0.00,,,0.00,weatherlink.com 1.10,2013-03-07 00:05:00,
2013-03-06 17:20:00,24.2,22.0,29.35,North,-999,0.0,0.0,90,0.00,,,0.00,weatherlink.com 1.10,2013-03-07 00:20:00,
2013-03-06 17:35:00,23.9,22.0,29.35,North,-999,0.0,0.0,91,0.00,,,0.00,weatherlink.com 1.10,2013-03-07 00:35:00,
2013-03-06 17:50:00,23.7,22.0,29.35,North,-999,0.0,0.0,92,0.00,,,0.00,weatherlink.com 1.10,2013-03-07 00:50:00,
2013-03-06 18:05:00,23.5,22.0,29.35,North,-999,0.0,0.0,93,0.00,,,0.00,weatherlink.com 1.10,2013-03-07 01:05:00,
2013-03-06 18:20:00,23.4,22.0,29.35,North,-999,0.0,0.0,93,0.00,,,0.00,weatherlink.com 1.10,2013-03-07 01:20:00,
2013-03-06 18:35:00,23.2,22.0,29.35,North,-999,0.0,0.0,93,0.00,,,0.00,weatherlink.com 1.10,2013-03-07 01:35:00,
2013-03-06 18:50:00,23.1,21.0,29.35,North,-999,0.0,0.0,93,0.00,,,0.00,weatherlink.com 1.10,2013-03-07 01:50:00,
2013-03-06 19:06:00,23.0,21.0,29.36,North,-999,0.0,0.0,93,0.00,,,0.00,weatherlink.com 1.10,2013-03-07 02:06:00,
2013-03-06 19:21:00,22.9,21.0,29.36,North,-999,0.0,0.0,93,0.00,,,0.00,weatherlink.com 1.10,2013-03-07 02:21:00,
2013-03-06 19:36:00,22.7,21.0,29.36,North,-999,0.0,0.0,93,0.00,,,0.00,weatherlink.com 1.10,2013-03-07 02:36:00,
2013-03-06 19:51:00,22.6,21.0,29.36,North,-999,0.0,0.0,93,0.00,,,0.00,weatherlink.com 1.10,2013-03-07 02:51:00,
2013-03-06 20:06:00,22.1,20.0,29.36,North,-999,0.0,0.0,93,0.00,,,0.00,weatherlink.com 1.10,2013-03-07 03:06:00,
2013-03-06 20:21:00,21.8,20.0,29.36,North,-999,0.0,0.0,93,0.00,,,0.00,weatherlink.com 1.10,2013-03-07 03:21:00,
2013-03-06 20:36:00,21.6,20.0,29.36,North,-999,0.0,0.0,93,0.00,,,0.00,weatherlink.com 1.10,2013-03-07 03:36:00,
2013-03-06 20:51:00,21.5,20.0,29.37,North,-999,0.0,0.0,93,0.00,,,0.00,weatherlink.com 1.10,2013-03-07 03:51:00,
2013-03-06 21:06:00,21.3,20.0,29.37,North,-999,0.0,0.0,93,0.00,,,0.00,weatherlink.com 1.10,2013-03-07 04:06:00,
2013-03-06 21:21:00,21.1,19.0,29.37,North,-999,0.0,0.0,93,0.00,,,0.00,weatherlink.com 1.10,2013-03-07 04:21:00,
2013-03-06 21:36:00,20.9,19.0,29.37,North,-999,0.0,0.0,93,0.00,,,0.00,weatherlink.com 1.10,2013-03-07 04:36:00,
2013-03-06 21:52:00,20.6,19.0,29.37,North,-999,0.0,0.0,92,0.00,,,0.00,weatherlink.com 1.10,2013-03-07 04:52:00,
2013-03-06 22:07:00,20.2,18.0,29.37,North,-999,0.0,0.0,92,0.00,,,0.00,weatherlink.com 1.10,2013-03-07 05:07:00,
2013-03-06 22:22:00,19.3,17.0,29.37,North,-999,0.0,0.0,92,0.00,,,0.00,weatherlink.com 1.10,2013-03-07 05:22:00,
2013-03-06 22:37:00,19.2,18.0,29.38,North,-999,0.0,0.0,93,0.00,,,0.00,weatherlink.com 1.10,2013-03-07 05:37:00,
2013-03-06 22:52:00,19.1,17.0,29.38,North,-999,0.0,0.0,93,0.00,,,0.00,weatherlink.com 1.10,2013-03-07 05:52:00,
2013-03-06 23:07:00,19.1,17.0,29.38,North,-999,0.0,0.0,93,0.00,,,0.00,weatherlink.com 1.10,2013-03-07 06:07:00,
2013-03-06 23:22:00,19.1,17.0,29.38,North,-999,0.0,0.0,92,0.00,,,0.00,weatherlink.com 1.10,2013-03-07 06:22:00,
2013-03-06 23:37:00,18.8,17.0,29.39,North,-999,0.0,0.0,92,0.00,,,0.00,weatherlink.com 1.10,2013-03-07 06:37:00,
2013-03-06 23:52:00,17.9,16.0,29.39,North,-999,0.0,0.0,92,0.00,,,0.00,weatherlink.com 1.10,2013-03-07 06:52:00,